World > North America > United States > Pennsylvania

Crum Lynne, Pennsylvania Regional Weather

Lat: 39.87N, Lon: 75.33W
Wx Zone: PAZ070Web Search

If you are on your PC, you can easily pass this page to your phone by scanning the QR Code near the bottom with your camera.

Feedback


°F Click to change Crum Lynne hourly weather to Imperial units.Click to change Crum Lynne hourly weather to Metric units. °C
Crum Lynne Weather Map
UTC Time: 5/15/2021, 05:21
Your Time:

Crum Lynne, PA Regional Weather

Expires:202105150600;;134841
ASUS41 KPHI 150512
RWRPHI

REGIONAL WEATHER ROUNDUP
NATIONAL WEATHER SERVICE MOUNT HOLLY NJ
100 AM EDT SAT MAY 15 2021

NOTE:  "FAIR" INDICATES FEW OR NO CLOUDS BELOW 12,000 FEET WITH NO
SIGNIFICANT WEATHER AND/OR OBSTRUCTIONS TO VISIBILITY.

 * = STATION DOES NOT REPORT PRECIPITATION (E.G. RAIN, SNOW, ETC.) 
        OR FOG.


PAZ043-044-047-054-055-060>062-066>071-150600-
EASTERN PENNSYLVANIA
  
CITY           SKY/WX    TMP DP  RH WIND       PRES   REMARKS
PHILADELPHIA   CLEAR     56  44  64 CALM      30.22R                  
NORTH PHILA    CLEAR     55  39  54 CALM      30.22S                  
BLUE BELL*     CLEAR     47  42  81 CALM      30.22S                  
DOYLESTOWN     CLEAR     52  39  61 CALM      30.20S                  
QUAKERTOWN*    CLEAR     46  41  81 CALM      30.22S                  
PERKASIE*      FAIR      46  37  71 CALM      30.22S                  
POTTSTOWN      CLEAR     46  39  76 CALM      30.23S                  
LANCASTER      CLEAR     56  36  47 CALM      30.21S                  
COATESVILLE    CLEAR     50  39  66 CALM      30.23S                  
WEST CHESTER   FAIR      52  39  62 CALM      30.22S                  
READING        CLEAR     52  43  71 CALM      30.20S                  
ALLENTOWN      CLEAR     49  39  68 N5        30.21S                  
QN CITY/ALNTWN FAIR      50  41  71 CALM      30.22S                  
MOUNT POCONO   PTCLDY    42  36  79 CALM      30.23S                  
LEHIGHTON      FAIR      39  39 100 CALM      30.23S                  
WILKES BARRE   CLEAR     52  37  56 E7        30.22R                  

$$

SKY/WX - Weather  TMP - Temperature  DP - Dew Point  RH - Relative Humidity
WIND - Wind Direction/Speed PRES - Barometric Pressure VSB - Visibility
WCI - Wind Chill Index E13G22 Wind - East Wind 13 mph/Gusts of 22 mph